Back to catalog

THORAD AGENA D DEB

AliveLEO
NORAD 6014·DEBRIS·🇺🇸 United States

Launched Apr 8, 1970 from Vandenberg Space Force Base

Loading…

Next Passes (next 24 hours)

TLE

FreshSource: Space-Track

Epoch: Sep 14, 2026, 14:07 UTC

1 06014U 70025MR  26257.58844061  .00002083  00000-0  12964-2 0  9990
2 06014 100.0322  31.5580 0052516 260.3688  99.1541 14.05589587831604

Track THORAD AGENA D DEB in real time with AllMySat

Download on the App Store